Wind_Speed
39 40 41 42 44 46 46 47 48 48 48 47 46 44 44 43 42 39 37 36 34 33 32 32 30 28 28 26 24 24 23 24 23 23 22 22 22 23 23 23 23 23 22
38 39 39 41 42 44 45 45 46 48 49 49 49 48 47 47 45 43 40 37 35 35 33 32 29 28 27 27 26 25 25 25 25 24 23 23 24 24 25 25 25 25 25
35 37 37 38 39 40 40 42 43 45 46 48 48 48 48 48 46 44 42 39 35 33 31 30 29 28 27 26 27 28 26 25 26 26 26 26 26 26 26 27 27 27 27
32 33 33 33 35 36 36 37 39 41 43 44 45 45 45 45 45 45 42 40 38 36 34 32 31 31 29 27 27 27 26 26 26 26 27 28 28 28 28 28 29 28 29
28 27 27 28 28 29 31 32 35 37 39 40 41 42 42 42 42 42 41 39 38 37 36 34 31 31 30 28 27 25 25 26 26 26 27 27 28 29 30 30 30 30 30
24 24 23 22 22 23 25 26 28 30 32 33 35 36 37 38 38 38 38 37 36 36 35 34 32 31 31 30 29 28 27 27 27 27 28 29 29 30 31 32 33 32 31
19 18 17 17 17 17 17 19 20 21 23 25 27 29 31 31 32 33 34 34 34 33 33 32 32 32 31 30 30 29 29 29 29 29 30 30 32 32 34 35 35 35 35
16 15 15 14 14 12 12 12 12 13 14 16 18 20 23 25 25 27 29 29 30 31 31 32 31 31 31 30 30 30 28 28 29 29 30 32 33 33 34 35 37 37 36
14 13 14 13 12 10 9 9 9 8 8 10 12 13 17 18 19 21 24 26 28 28 30 31 31 31 30 31 31 31 30 30 30 31 31 32 33 33 34 34 35 36 37
14 14 15 14 12 11 10 9 8 6 4 4 5 7 10 13 14 15 18 21 24 25 27 28 29 30 31 31 32 32 32 32 32 32 33 34 35 34 35 35 35 36 36
15 15 16 16 14 13 12 11 11 10 7 5 1 2 4 7 10 11 14 17 19 21 24 25 26 27 28 29 30 31 31 31 31 32 32 33 34 34 34 34 34 35 35
16 17 17 18 18 16 15 15 14 12 12 11 8 5 2 2 4 6 8 11 14 17 19 21 23 23 25 25 26 27 28 29 30 30 31 31 32 32 33 34 33 34 34
18 19 19 19 19 19 19 18 17 16 15 13 11 8 6 3 1 2 4 6 9 11 13 15 17 18 20 22 24 25 26 27 28 28 29 29 29 30 29 30 31 31 32
20 20 20 20 20 20 19 18 18 17 16 15 14 12 10 8 7 4 2 1 2 5 7 10 12 14 16 18 20 22 22 23 24 25 26 27 28 28 27 27 27 27 28
21 21 21 21 21 20 20 19 18 18 17 16 15 14 13 12 10 8 6 4 3 2 3 6 8 10 12 13 15 17 18 19 20 21 22 23 24 25 25 26 26 26 25
21 21 21 21 21 21 21 20 20 19 19 18 17 17 16 14 13 11 9 8 7 6 5 5 6 7 9 10 12 14 15 17 18 19 20 21 21 22 22 23 24 23 23
20 20 21 21 21 21 21 21 21 20 19 19 18 18 17 16 15 14 13 11 10 9 8 7 7 7 8 9 11 12 13 15 16 17 18 19 19 19 19 20 21 21 21
20 20 20 20 21 21 21 21 21 20 20 20 20 20 19 18 17 16 16 15 13 12 11 9 9 8 7 7 7 8 9 10 11 12 13 14 15 15 15 16 17 16 17
18 19 19 20 20 21 21 21 21 21 20 20 19 19 19 18 18 18 17 16 15 15 14 12 11 9 8 7 6 6 6 7 7 8 9 10 10 11 12 12 13 13 14
16 16 17 18 19 19 20 20 20 20 20 20 19 19 19 19 19 19 18 17 17 16 16 14 13 12 9 7 6 5 5 4 5 5 6 7 8 9 10 11 11 12 12
14 15 15 16 17 18 18 19 19 20 20 19 19 19 19 19 19 19 19 18 18 17 17 16 15 13 11 8 6 4 3 2 1 2 3 4 6 7 8 9 10 10 10
13 14 14 15 15 16 17 18 19 19 20 19 19 19 20 20 20 20 20 19 19 19 18 17 17 15 13 11 9 7 5 4 3 3 3 3 5 6 7 7 8 8 9
12 12 13 13 14 15 16 17 18 19 20 20 19 19 20 20 20 21 21 21 20 20 19 19 18 17 16 14 12 11 10 8 7 6 6 5 5 5 6 6 7 8 7
11 11 12 12 13 14 14 15 17 18 19 20 20 20 20 20 21 21 21 21 22 22 21 20 19 18 17 16 15 14 13 12 11 10 9 8 8 7 7 7 8 7 7
9 10 11 11 12 12 13 14 15 17 18 19 20 20 20 20 20 21 21 21 22 23 23 22 20 19 19 18 17 16 16 15 14 13 12 11 10 10 9 9 9 8 7
9 9 10 10 10 11 11 12 14 15 16 18 19 20 20 20 20 21 21 21 21 22 23 23 22 21 20 19 19 18 18 17 16 15 14 13 12 11 11 10 10 10 9
Wind_Direction
277 275 274 272 270 267 264 261 260 260 258 257 257 257 257 257 258 257 255 256 254 253 252 249 247 249 250 251 251 251 252 251 251 251 250 249 248 247 246 246 245 244 243
281 280 278 276 273 271 268 265 263 262 261 260 259 259 259 258 258 258 255 256 256 256 256 254 252 253 253 254 252 252 253 251 250 249 250 250 249 248 248 247 247 246 246
285 283 281 279 277 274 272 268 265 263 261 260 258 258 258 259 259 258 258 258 258 255 256 256 257 257 258 256 253 253 253 252 252 251 250 250 250 249 250 251 250 248 247
291 288 285 282 279 276 274 272 268 265 262 259 257 256 256 257 258 258 258 257 258 259 257 257 258 257 257 255 254 254 253 254 253 253 250 249 250 250 251 252 252 251 251
300 298 293 290 286 281 277 275 272 268 264 260 257 255 255 255 255 256 256 256 257 258 258 258 257 255 254 254 256 254 253 252 253 251 250 250 249 249 249 250 251 253 253
309 307 302 297 292 288 283 280 277 272 266 260 256 254 254 254 253 253 253 252 253 254 256 258 257 256 255 255 256 255 252 252 254 252 250 251 249 249 249 249 250 252 253
321 320 318 312 304 296 290 287 282 276 267 259 256 254 251 250 250 249 248 247 248 249 250 252 253 253 254 255 253 253 253 252 252 252 252 251 249 250 250 248 248 251 253
338 336 337 334 329 317 307 304 298 287 271 261 255 250 245 243 244 243 243 241 242 243 244 246 248 249 251 251 251 252 254 253 252 253 253 253 251 253 253 250 248 249 252
356 356 354 353 354 350 344 342 332 311 283 265 258 247 238 235 236 239 239 239 238 240 241 243 244 247 249 250 251 254 255 254 253 254 254 253 252 253 253 253 251 250 251
16 14 13 16 16 10 5 9 13 10 346 293 260 239 230 230 235 238 238 237 237 239 239 240 243 247 250 251 252 253 253 253 255 255 255 253 253 254 254 252 252 251 250
32 31 30 32 30 31 35 33 32 30 33 37 43 215 227 230 236 240 241 241 240 240 241 243 245 248 249 251 251 252 253 254 255 256 256 255 254 255 255 253 251 250 251
40 40 41 43 44 45 44 44 47 48 51 54 63 78 115 202 234 238 242 243 244 245 245 245 247 248 249 250 250 252 253 253 254 255 254 254 253 253 253 252 252 251 252
47 47 49 50 50 51 52 54 54 54 54 55 56 63 62 55 30 264 252 251 248 246 245 245 247 249 250 251 251 251 253 253 254 255 255 253 252 251 252 251 249 248 249
52 52 52 52 53 55 54 53 52 52 53 53 53 55 60 61 55 47 36 333 256 245 247 252 254 254 254 254 253 253 252 252 251 252 252 250 248 248 248 248 246 247 248
57 56 54 55 55 54 52 51 50 49 50 51 51 52 53 56 53 47 44 35 12 318 280 275 267 262 258 257 256 254 252 249 249 249 247 246 245 245 245 246 246 246 247
58 57 57 57 55 53 51 49 50 51 51 51 52 52 52 51 47 42 38 33 22 7 344 325 303 284 275 268 262 259 253 250 249 249 247 245 245 244 244 243 242 241 241
58 57 57 56 54 53 51 50 51 52 52 52 51 50 49 48 46 42 38 33 26 18 7 353 337 318 299 283 271 264 258 254 250 250 250 245 241 238 238 238 238 237 235
59 58 57 55 53 51 50 50 51 51 52 51 50 49 47 44 41 37 34 30 26 21 13 3 352 338 321 303 289 276 266 258 253 250 248 244 244 240 236 236 234 233 230
57 56 55 53 52 51 50 49 50 50 49 48 46 43 40 38 35 32 30 27 24 20 16 11 4 353 340 323 309 290 279 268 251 247 245 239 234 232 229 227 225 227 225
54 52 51 51 50 49 48 47 47 46 44 43 41 39 36 34 32 30 28 27 25 22 18 15 11 6 358 342 325 310 296 283 267 254 242 233 226 221 217 216 216 220 221
50 48 47 47 47 46 45 44 43 41 39 39 37 35 34 32 31 29 28 27 25 24 22 20 18 17 15 12 3 356 349 327 274 228 216 214 212 209 208 212 210 212 214
46 45 44 44 44 44 44 42 40 38 37 37 35 34 33 32 30 29 28 28 27 27 26 25 25 27 30 33 35 37 41 57 85 116 139 163 179 189 194 201 204 207 209
39 39 39 39 40 40 40 39 38 37 37 36 36 35 34 33 32 31 30 30 31 31 31 31 33 37 41 45 49 51 56 66 82 93 99 110 132 156 171 179 187 192 196
31 32 35 37 38 39 39 39 37 36 36 36 35 35 35 35 34 33 33 34 35 36 36 38 40 44 48 51 55 59 62 66 75 84 90 95 105 117 127 137 151 161 166
23 26 30 33 35 37 38 37 37 36 36 36 36 36 36 36 36 36 36 37 38 39 40 42 45 48 51 54 58 61 65 69 75 80 86 90 94 100 106 112 121 128 136
16 19 21 25 27 30 32 34 35 35 35 36 36 37 37 37 38 39 40 40 42 43 44 46 49 52 54 57 59 62 67 72 76 79 82 85 88 92 98 103 108 114 119
Height
5858 5856 5854 5852 5851 5851 5851 5851 5851 5852 5853 5853 5854 5855 5856 5857 5858 5859 5861 5862 5863 5865 5867 5868 5870 5871 5873 5874 5876 5878 5879 5880 5882 5884 5885 5886 5888 5889 5890 5891 5892 5893 5894
5848 5845 5843 5841 5840 5839 5838 5839 5839 5840 5841 5842 5843 5845 5846 5847 5849 5851 5853 5854 5856 5858 5860 5862 5863 5864 5866 5868 5869 5871 5872 5874 5876 5878 5879 5880 5883 5883 5884 5886 5887 5888 5889
5838 5835 5833 5830 5828 5827 5826 5826 5827 5827 5829 5830 5832 5834 5835 5837 5839 5841 5843 5845 5848 5850 5852 5854 5857 5858 5860 5861 5862 5864 5865 5867 5868 5871 5873 5874 5876 5877 5879 5880 5881 5882 5883
5829 5826 5823 5820 5818 5817 5816 5815 5814 5815 5816 5817 5819 5822 5824 5826 5828 5831 5833 5836 5839 5841 5844 5846 5849 5850 5852 5853 5855 5856 5858 5860 5861 5863 5865 5867 5869 5871 5872 5873 5875 5876 5877
5821 5817 5814 5811 5809 5807 5806 5804 5803 5803 5803 5805 5807 5810 5813 5815 5818 5821 5824 5826 5829 5832 5835 5838 5840 5842 5844 5846 5848 5849 5851 5853 5854 5856 5858 5860 5861 5863 5864 5866 5868 5869 5870
5815 5811 5807 5804 5802 5799 5797 5795 5794 5793 5793 5794 5796 5799 5802 5805 5808 5811 5814 5817 5820 5823 5827 5829 5831 5834 5836 5839 5840 5842 5843 5845 5847 5848 5850 5852 5853 5855 5856 5858 5859 5861 5862
5811 5807 5803 5799 5796 5793 5790 5788 5787 5785 5785 5786 5788 5790 5793 5796 5799 5802 5805 5808 5812 5815 5818 5821 5823 5826 5828 5830 5831 5833 5836 5837 5839 5840 5842 5844 5846 5847 5848 5850 5851 5853 5854
5808 5804 5800 5796 5793 5790 5787 5784 5782 5780 5780 5780 5781 5783 5785 5789 5792 5794 5797 5800 5803 5806 5809 5812 5815 5818 5820 5822 5823 5826 5827 5829 5831 5832 5834 5835 5837 5838 5839 5841 5843 5844 5846
5807 5803 5799 5795 5792 5789 5786 5783 5780 5778 5777 5777 5778 5779 5781 5783 5786 5788 5790 5793 5796 5798 5801 5804 5807 5809 5812 5814 5816 5818 5819 5821 5823 5824 5825 5827 5828 5829 5831 5832 5833 5835 5837
5807 5804 5800 5796 5792 5789 5786 5783 5781 5778 5777 5776 5776 5777 5778 5779 5782 5783 5785 5788 5790 5792 5795 5797 5800 5802 5804 5806 5808 5810 5811 5813 5814 5815 5817 5818 5819 5820 5822 5823 5824 5825 5827
5809 5805 5801 5798 5794 5791 5788 5785 5783 5780 5778 5777 5776 5776 5777 5778 5780 5781 5782 5783 5785 5787 5789 5791 5793 5795 5797 5798 5800 5801 5803 5804 5805 5806 5807 5808 5810 5811 5812 5813 5815 5816 5818
5811 5808 5804 5800 5797 5794 5791 5788 5786 5783 5781 5780 5778 5778 5778 5778 5778 5779 5779 5780 5782 5783 5784 5786 5787 5789 5790 5791 5792 5794 5795 5796 5797 5797 5798 5799 5801 5802 5803 5805 5806 5808 5809
5815 5811 5808 5804 5801 5798 5795 5792 5790 5787 5785 5783 5782 5780 5780 5779 5779 5778 5778 5779 5779 5779 5780 5781 5782 5783 5783 5784 5785 5786 5787 5788 5788 5789 5790 5791 5793 5794 5795 5796 5798 5799 5801
5818 5815 5812 5809 5806 5803 5800 5797 5794 5792 5789 5787 5785 5783 5782 5781 5780 5779 5778 5778 5777 5777 5778 5778 5778 5778 5778 5778 5779 5779 5780 5781 5781 5782 5782 5784 5785 5786 5788 5789 5790 5791 5793
5822 5819 5816 5813 5810 5807 5804 5802 5799 5796 5793 5791 5788 5787 5785 5783 5782 5781 5779 5778 5777 5776 5776 5775 5775 5774 5774 5773 5773 5773 5774 5774 5774 5775 5776 5777 5778 5779 5780 5782 5783 5784 5786
5827 5824 5821 5818 5815 5812 5809 5806 5803 5800 5798 5795 5793 5791 5788 5786 5784 5782 5781 5779 5777 5776 5774 5773 5772 5770 5769 5769 5768 5768 5768 5768 5768 5769 5769 5770 5771 5772 5774 5775 5777 5778 5780
5832 5829 5826 5823 5820 5817 5814 5811 5808 5805 5802 5799 5797 5794 5792 5789 5787 5785 5782 5780 5778 5775 5773 5771 5769 5767 5766 5765 5764 5763 5762 5762 5763 5763 5764 5764 5765 5767 5768 5769 5771 5773 5775
5836 5834 5831 5828 5825 5822 5819 5816 5812 5809 5807 5804 5801 5798 5796 5793 5790 5787 5784 5781 5778 5775 5772 5770 5767 5765 5763 5761 5760 5759 5758 5757 5758 5758 5758 5759 5760 5761 5762 5764 5766 5768 5770
5841 5838 5835 5832 5830 5826 5823 5820 5817 5814 5811 5808 5805 5802 5799 5796 5792 5789 5785 5782 5779 5775 5772 5769 5766 5763 5761 5759 5757 5756 5755 5754 5754 5754 5754 5755 5756 5758 5759 5761 5762 5764 5766
5845 5842 5839 5837 5834 5831 5828 5825 5822 5819 5815 5812 5809 5806 5802 5799 5795 5791 5787 5784 5780 5776 5772 5769 5765 5762 5759 5757 5755 5753 5752 5751 5751 5751 5752 5752 5753 5755 5756 5758 5760 5762 5764
5848 5845 5843 5840 5838 5835 5832 5829 5826 5822 5819 5816 5812 5809 5805 5801 5798 5794 5790 5786 5782 5778 5774 5769 5765 5762 5758 5756 5754 5752 5751 5750 5749 5750 5750 5750 5751 5753 5755 5756 5758 5760 5762
5851 5848 5846 5844 5841 5838 5835 5833 5829 5826 5822 5819 5816 5812 5808 5804 5800 5796 5792 5788 5784 5780 5775 5771 5767 5763 5759 5757 5754 5752 5751 5750 5749 5749 5750 5750 5751 5753 5754 5755 5757 5759 5761
5854 5851 5849 5846 5844 5841 5838 5836 5833 5829 5826 5822 5819 5815 5811 5807 5803 5799 5795 5791 5787 5782 5778 5774 5769 5765 5762 5759 5757 5755 5753 5752 5751 5751 5751 5751 5752 5753 5754 5755 5757 5759 5761
5856 5853 5851 5848 5846 5843 5841 5838 5835 5832 5829 5825 5822 5818 5814 5811 5807 5803 5799 5795 5790 5786 5781 5777 5773 5770 5767 5764 5761 5759 5757 5755 5754 5754 5754 5754 5754 5755 5756 5757 5758 5760 5761
5857 5855 5853 5850 5848 5845 5843 5840 5838 5835 5832 5828 5825 5821 5818 5814 5810 5806 5803 5799 5795 5790 5786 5782 5778 5775 5772 5769 5766 5764 5762 5760 5759 5758 5758 5758 5758 5758 5759 5759 5760 5762 5763
5858 5856 5854 5852 5849 5847 5845 5842 5840 5837 5835 5831 5828 5825 5821 5818 5814 5810 5807 5803 5799 5795 5791 5787 5783 5780 5777 5774 5772 5770 5767 5766 5764 5764 5763 5762 5762 5762 5762 5763 5763 5764 5765